Home   Weather   Gambier Islands   Past weeks

Flag for French Polynesia Past Weather in Gambier Islands, French Polynesia — Yesterday and Last 2 Weeks

Now
72 °F

Partly sunny.


Feels Like: 74 °F
Forecast: 67 / 73 °F
Wind: 16 mph from North

Location: Rikitea

Current Time: Jul 23, 2017 at 8:01:18 am

Latest Report: Jul 23, 2017 at 7:00 am


Visibility: 16 mi

Pressure: 30.08 "Hg

Humidity: 72%

Dew Point: 63 °F

Location of Gambier IslandsLocation

Past Weather in Gambier Islands — Graph

°F

Gambier Islands Temperature Yesterday

Maximum temperature yesterday: 72 °F (at 8:00 am)
Minimum temperature yesterday: 64 °F (at 12:00 pm)
Average temperature yesterday: 69 °F

High & Low Weather Summary for the Past Weeks

 TemperatureHumidityPressure
High80 °F (Jul 18, 11:00 am)94% (Jul 22, 11:00 am)30.33 "Hg (Jul 22, 11:00 am)
Low64 °F (Jul 22, 12:00 pm)59% (Jul 8, 3:00 pm)29.94 "Hg (Jul 10, 5:00 am)
Average72 °F80%30.12 "Hg
* Reported Jul 8 6:00 am — Jul 23 6:00 am, Gambier Islands. Weather by CustomWeather, © 2017

Note: Actual official high and low records may vary slightly from our data, if they occured in-between our weather recording intervals... More about our weather records

Advertising

Gambier Islands Weather History for the Previous 24 Hours

Scroll right to see more
 ConditionsComfort  
Time TempWeatherWind HumidityBarometerVisibility
6:00 am
Sun, Jul 23
72 °FPassing clouds.15 mph74%30.07 "Hg16 mi
5:00 am72 °FMild.15 mph72%30.06 "HgN/A
4:00 am71 °FMild.15 mph74%30.06 "HgN/A
3:00 am71 °FMild.15 mph75%30.07 "HgN/A
2:00 am71 °FMild.14 mph74%30.08 "HgN/A
1:00 am69 °FMild.10 mph83%30.11 "HgN/A
12:00 am70 °FMild.10 mph72%30.11 "HgN/A
11:00 pm
Sat, Jul 22
69 °FMild.10 mph76%30.13 "HgN/A
10:00 pm69 °FMild.9 mph75%30.14 "HgN/A
9:00 pm67 °FMild.9 mph79%30.16 "HgN/A
8:00 pm67 °FMild.9 mph89%30.19 "HgN/A
7:00 pm67 °FMild.6 mph86%30.19 "HgN/A
6:00 pm66 °FMild.10 mph81%30.18 "HgN/A
5:00 pm66 °FLight rain. Overcast.9 mph82%30.17 "Hg9 mi
3:00 pm66 °FLight rain. Overcast.14 mph89%30.18 "Hg4 mi
2:00 pm65 °FLight rain. Overcast.6 mph91%30.19 "Hg5 mi
1:00 pm66 °FLight rain. Low clouds.13 mph94%30.20 "Hg5 mi
12:00 pm64 °FHeavy rain. Low clouds.14 mph93%30.22 "Hg2 mi
11:00 am67 °FRain. Overcast.13 mph94%30.22 "Hg3 mi
10:00 am66 °FRain. Overcast.15 mph87%30.21 "Hg3 mi
9:00 am69 °FRain. Overcast.22 mph90%30.16 "Hg3 mi
8:00 am72 °FOvercast.24 mph81%30.15 "Hg12 mi
Weather by CustomWeather, © 2017

See weather overviewHow to use our weather pages